Regional Weather Roundup
Issued by NWS Wilmington, NC

Home | Current Version | Previous Version | Text Only | Print | Product List | Glossary On
Versions: 1 2 3 4 5 6 7 8 9 10 11 12 13 14 15 16 17 18 19 20 21 22 23 24 25 26 27 28 29 30 31 32 33 34 35 36 37 38 39 40 41 42 43 44 45 46 47 48 49 50
000
ASUS42 KILM 310110
RWRILM
RWRILM
REGIONAL HOURLY WEATHER ROUNDUP
NATIONAL WEATHER SERVICE WILMINGTON NC
800 PM EST FRI JAN 30 2015

NOTE: "FAIR" INDICATES FEW OR NO CLOUDS BELOW 12,000 FEET WITH NO
SIGNIFICANT WEATHER AND/OR OBSTRUCTIONS TO VISIBILITY.

...............WFO WILMINGTON COUNTY WARNING AREA...............

......COASTAL NC AND SC COUNTIES......

CITY           SKY/WX    TMP DP  RH WIND       PRES   REMARKS
WILMINGTON     CLEAR     43  19  38 NW14      30.19R
SOUTHPORT      CLEAR     42  20  41 NW8       30.20R
N MYRTLE BEACH CLEAR     45  17  32 N7        30.21R
MYRTLE BEACH   CLEAR     46  19  34 NW12      30.24R

......INLAND NC AND SC COUNTIES.......

CITY           SKY/WX    TMP DP  RH WIND       PRES   REMARKS
LUMBERTON      CLEAR     43  14  31 N14G24    30.23R
ELIZABETHTOWN  CLEAR     43  16  34 NW7       30.22R
WHITEVILLE     CLEAR     43  19  37 W3        30.22R
FLORENCE       CLEAR     43  18  36 N7        30.25R
DARLINGTON     CLEAR     41  19  42 NW13      30.27R

....................REST OF NORTH CAROLINA......................

.........EASTERN NC.........

CITY           SKY/WX    TMP DP  RH WIND       PRES   REMARKS
CAPE HATTERAS  MOCLDY    40  32  73 VRB5      30.10R
JACKSONVILLE   CLEAR     41  16  36 NW7       30.18R
MOREHEAD CITY  CLEAR     43  21  41 NW24G30   30.14R
KENANSVILLE    CLEAR     41  14  34 NW6       30.20R
NEW BERN       CLEAR     43  14  31 NW12G23   30.17R
ELIZABETH CITY PTCLDY    36  15  42 NW26G33   30.14R WCI  24

.........CENTRAL NC.........

CITY           SKY/WX    TMP DP  RH WIND       PRES   REMARKS
RALEIGH DURHAM CLEAR     36   7  29 VRB6      30.25R WCI  31
ROCKY MOUNT    CLEAR     37  12  35 NW12G21   30.21R WCI  29
ROANOKE RAPIDS NOT AVBL
FAYETTEVILLE   CLEAR     42  14  32 NW12      30.23R
HOFFMAN        CLEAR     38  14  36 N8        30.27R WCI  33

.........WESTERN NC.........

CITY           SKY/WX    TMP DP  RH WIND       PRES   REMARKS
CHARLOTTE      PTCLDY    37  12  35 CALM      30.27R
GREENSBORO     CLEAR     32   7  35 N6        30.25R WCI  26
HICKORY        NOT AVBL
BOONE          NOT AVBL
ASHEVILLE      NOT AVBL

.....................REST OF SOUTH CAROLINA.....................

.........EASTERN SC.........

CITY           SKY/WX    TMP DP  RH WIND       PRES   REMARKS
CHARLESTON     CLEAR     43  24  47 N9        30.24R
BEAUFORT MCAS  FAIR      45  32  60 N5        30.25R
HILTON HEAD    CLEAR     48  36  61 N5        30.25R

.........CENTRAL SC.........

CITY           SKY/WX    TMP DP  RH WIND       PRES   REMARKS
COLUMBIA       CLEAR     46  19  34 N5        30.26R
ORANGEBURG     CLEAR     47  17  30 N6        30.25R
SUMTER SHAW    CLEAR     44  20  38 NW1       30.24R

.........WESTERN SC.........

CITY           SKY/WX    TMP DP  RH WIND       PRES   REMARKS
GREENVILLE     NOT AVBL
ROCK HILL      CLEAR     38  15  39 NW3       30.27R
ANDERSON       CLEAR     42  17  36 N5        30.27R
CLEMSON        NOT AVBL
GREENWOOD      CLEAR     38  18  44 N6        30.28R WCI  33


...................COASTAL AND OFFSHORE REPORTS..................

................LOCAL PIERS AND NC RESERVE................


STATION/POSITION TIME  SKY/WX   TEMP    WIND        PRES    VSBY
                                AIR SEA DIR/SP/G
                 (UTC)          (F)     (DEG/KT/KT) (MB)    (MI)
JOHNY MRCER PIER 0100            45 54  290/  7/ 12 1021.2R
NC RESRV MASNBRO 0000            44     200/  1     1021.0S
OCEAN CREST PIER 0100            44 53  280/  7/  8 1021.5R
SPRINGMAID  PIER 0100            45 50  300/  5/  7 1023.3R


................COASTAL AND OFFSHORE BUOYS................


STATION/POSITION TIME  SKY/WX   TEMP    WIND        PRES    VSBY
                                AIR SEA DIR/SP/G
                 (UTC)          (F)     (DEG/KT/KT) (MB)    (MI)
DIMNDSHOAL 41025 0100            45 66  350/ 16/ 19 1018.6R
WVE H/P(F/S)=  5/ 6 WND WVE H/P(F/S)=  3/ 6 SWL H/P/D(F/S/D)=  3/ 10/ 7

CAPE LOOKOUT     0000            46     300/ 17/ 20 1019.7R
ONSLOW BAY 41036 NOT AVBL
5 WRITEBCH 41038 0000            48 52  320/ 16/ 17 1021.1R
MASONBORO  41110 0100               52                N/A
WVE H/P(F/S)=  2/11 WND WVE H/P(F/S)=  2/ 8

WILM HARBR 41108 0100               53                N/A
WVE H/P(F/S)=  3/ 5 WND WVE H/P(F/S)=  3/ 5

27WRITEBCH 41037 NOT AVBL
FRYING PAN 41013 0100            50 62  320/ 23/ 27 1022.2R
WVE H/P(F/S)=  6/ 5 WND WVE H/P(F/S)=  7/ 5

SUNST NRSH 41024 0000            48     310/ 16/ 17   N/A
CAPRS NRSH 41029 0000            51     320/ 12/ 14   N/A
EDISTO     41004 0100            55 68  330/ 21/ 27 1022.2R
WVE H/P(F/S)=  6/ 5 WND WVE H/P(F/S)=  5/ 5 SWL H/P/D(F/S/D)=  2/11



..........OFFSHORE BUOYS BEYOND 100 NM OFFSHORE...........
.....IN A TRIANGLE---HAT TO BERMUDA TO BAHAMAS TO HAT.....


STATION/POSITION TIME  SKY/WX   TEMP    WIND        PRES    VSBY
                                AIR SEA DIR/SP/G
                 (UTC)          (F)     (DEG/KT/KT) (MB)    (MI)
150E HAT   41001 NOT AVBL
W BERMUDA  41048 0013            59 71  250/ 23/ 27 1010.3F
WVE H/P(F/S)= 10/ 7 WND WVE H/P(F/S)= 10/ 7

ATLANTIC S 41049 0010            69 74   CALM  /  4 1017.6R
WVE H/P(F/S)=  8/ 9 WND WVE H/P(F/S)=  2/ 4 SWL H/P/D(F/S/D)=  8/340/ 9

E BAHAMAS  41046 0041            72 78  310/  2/  4 1017.9R
WVE H/P(F/S)=  6/ 9 WND WVE H/P(F/S)=  2/ 4 SWL H/P/D(F/S/D)=  7/360/ 9

NE BAHAMAS 41047 0021            69 75  260/ 17/ 21 1017.8F
WVE H/P(F/S)=  5/ 9 WND WVE H/P(F/S)=  3/ 4 SWL H/P/D(F/S/D)=  3/ 9

120E CANVRL41010 0100            65 73  330/ 19/ 23 1020.8R
WVE H/P(F/S)=  6/ 6 WND WVE H/P(F/S)=  5/ 6 SWL H/P/D(F/S/D)=  2/ 50/ 9


END


USA.gov is the U.S. government's official web portal to all federal, state and local government web resources and services.